Location: 5810 Zion Rd, Cleves, OH 45002, USA
(39.1922°N, 84.7113°W)
Time: 02:54:40
(UTC-05:00)

A-11 Canister half - Visible Passes

Search period start: 10 December 2019 00:00
Search period end: 20 December 2019 00:00
Orbit: 1515 x 1685 km, 47.2° (Epoch: 09 December)

Date Brightness Start Highest point End Pass type
(mag) Time Alt. Az. Time Alt. Az. Time Alt. Az.
10 Dec 9.6 19:17:35 10° WNW 19:27:24 58° SW 19:37:15 10° SE visible
10 Dec 11.2 21:25:41 10° W 21:30:52 15° WSW 21:36:03 10° SSW visible
11 Dec 9.6 18:54:37 10° WNW 19:04:28 61° SW 19:14:24 10° SE visible
11 Dec 11.1 21:02:16 10° W 21:08:03 17° WSW 21:13:50 10° SSW visible
12 Dec 9.6 18:31:39 10° WNW 18:41:33 64° SW 18:51:32 10° SE visible
12 Dec 11.1 20:38:55 10° W 20:45:12 19° SW 20:51:31 10° SSW visible
13 Dec 9.6 18:08:42 10° WNW 18:18:38 68° SW 18:28:40 10° SE visible
13 Dec 11.1 20:15:38 10° W 20:22:21 20° SW 20:29:07 10° SSW visible
14 Dec 9.5 17:45:44 10° WNW 17:55:42 71° SW 18:05:47 10° SE visible
14 Dec 11.1 19:52:25 10° W 19:59:31 22° SW 20:06:40 10° S visible
15 Dec 11.1 19:29:14 10° WNW 19:36:40 24° SW 19:44:10 10° S visible
16 Dec 11.1 19:06:05 10° WNW 19:13:49 26° SW 19:21:37 10° S visible
17 Dec 11.1 18:42:58 10° WNW 18:50:57 28° SW 18:59:02 10° S visible
18 Dec 11.0 18:19:52 10° WNW 18:28:05 30° SW 18:36:25 10° S visible
19 Dec 11.0 17:56:49 10° WNW 18:05:14 32° SW 18:13:47 10° S visible
